Regional Weather Roundup
Issued by NWS Sterling, VA

Home | Current Version | Previous Version | Graphics & Text | Print | Product List | Glossary On
Versions: 1 2 3 4 5 6 7 8 9 10 11 12 13 14 15 16 17 18 19 20 21 22 23 24 25 26 27 28
000
ASUS41 KLWX 152311
RWRLWX

REGIONAL WEATHER ROUNDUP
NATIONAL WEATHER SERVICE BALTIMORE MD/WASHINGTON DC
700 PM EDT TUE AUG 15 2017

Note: "FAIR" indicates few or no clouds below 12,000 feet
with no significant weather and/or obstructions to visibility.
 TC=TEMPERATURE CELSIUS

 * =Non NWS site. Station does not report precipitation (e.g. rain,
    snow, etc.), thunder, or fog.

DCZ001-MDZ009-015-VAZ040>042-051-053>054-160000-
WASHINGTON METRO

CITY           SKY/WX    TMP DP  RH WIND       PRES   REMARKS
WASHINGTON NAT MOSUNNY   82  74  76 N7        29.88S
DULLES         MOSUNNY   79  73  82 NE8       29.89F
ANDREWS AFB    PTSUNNY   79  73  83 NE6       29.88S
FT BELVOIR     CLOUDY    80  72  77 CALM      29.88R
QUANTICO       PTSUNNY   82  75  79 NE5       29.88S
COLLEGE PARK*  PTSUNNY   79  72  79 NW3       29.88S
LEESBURG*      MOSUNNY   79  73  83 N3        29.90S
MANASSAS*      CLOUDY    80  73  79 N7        29.88F
GAITHERSBURG*  SUNNY     77  71  82 VRB3      29.91F

$$

MDZ006>007-011-014-160000-
BALTIMORE METRO

CITY           SKY/WX    TMP DP  RH WIND       PRES   REMARKS
BWI AIRPORT    PTSUNNY   78  74  87 E6        29.89R
MD SCIENCE CTR   N/A     80  73  79 MISG      29.88S
MARTIN STATE   PTSUNNY   79  77  94 NE6       29.89F
ANNAPOLIS      CLOUDY    80  77  90 N5        29.88S
FORT MEADE*    MOSUNNY   77  72  83 E3        29.91R

$$

MDZ012-015-019>023-160000-
MARYLAND EASTERN SHORE

CITY           SKY/WX    TMP DP  RH WIND       PRES   REMARKS
OCEAN CITY     CLOUDY    78  76  93 CALM      29.88F
SALISBURY      PTCLDY    79  77  94 S5        29.87S
BAY BRIDGE AP* CLOUDY    79  75  89 NE3       29.88S
CAMBRIDGE*     PTSUNNY   81  75  83 CALM      29.88R
EASTON*        PTSUNNY   81  73  78 CALM      29.92S

$$

MDZ017>025-160000-
SOUTHERN MARYLAND

CITY           SKY/WX    TMP DP  RH WIND       PRES   REMARKS
PATUXENT RIVER CLOUDY    79  76  90 E6        29.87S
ST INIGOES     CLOUDY    77  76  96 SE5       29.87S
LEONARDTOWN*   CLOUDY    79  73  83 CALM      29.90R

$$

MDZ003>005-160000-
NORTH CENTRAL MARYLAND

CITY           SKY/WX    TMP DP  RH WIND       PRES   REMARKS
FREDERICK*     MOSUNNY   81  72  74 E3        29.92F
HAGERSTOWN APT MOSUNNY   81  70  69 CALM      29.90S
WESTMINSTER*   SUNNY     82  72  69 E3        29.91S

$$

MDZ501>502-160000-
WESTERN MARYLAND

CITY           SKY/WX    TMP DP  RH WIND       PRES   REMARKS
OAKLAND*       PTSUNNY   72  63  73 CALM      29.99S
CUMBERLAND*    SUNNY     81  70  69 CALM      29.94R

$$

VAZ025>031-160000-
SHENANDOAH VALLEY

CITY           SKY/WX    TMP DP  RH WIND       PRES   REMARKS
WINCHESTER*    SUNNY     77  70  78 CALM      29.90S
FRONT ROYAL*   MOSUNNY   79  72  78 CALM      29.89S
LURAY*         MOSUNNY   81  72  74 NE5       29.91S
NEW MARKET*    SUNNY     78  72  81 N3        29.89S
STAUNTON*      MOSUNNY   79  71  77 NE5       29.93S
WAYNESBORO*    CLOUDY    78  74  85 N7        29.94R

$$

WVZ021-048>050-054>055-160000-
EASTERN WEST VIRGINIA PANHANDLE

CITY           SKY/WX    TMP DP  RH WIND       PRES   REMARKS
MARTINSBURG    SUNNY     80  70  71 CALM      29.89F
PETERSBURG*    MOSUNNY   83  74  74 CALM      29.91R HX  90

$$

VAZ036>039-050-160000-
CENTRAL FOOTHILLS

CITY           SKY/WX    TMP DP  RH WIND       PRES   REMARKS
CHARLOTTESVILL RAIN      82  75  79 NE7       29.89R
CULPEPER*      MOSUNNY   81  75  81 CALM      29.89S
ORANGE*        MOSUNNY   79  73  83 CALM      29.88S
GORDONSVILLE*  MOSUNNY   80  75  83 NE5       29.88S
WARRENTON*     MOSUNNY   81  71  73 E6        29.88S

$$

VAZ055>057-160000-
NORTH AND CENTRAL PIEDMONT

CITY           SKY/WX    TMP DP  RH WIND       PRES   REMARKS
FREDERICKSBRG* CLOUDY    81  75  82 NE5       29.87R
STAFFORD*      PTSUNNY   79  75  87 NE5       29.92S

$$

NCZ024-NYZ072-PAZ021-071-VAZ022-071-160000-
OTHER REGIONAL OBSERVATIONS

CITY           SKY/WX    TMP DP  RH WIND       PRES   REMARKS
NEW YORK CITY  CLOUDY    73  70  90 CALM      29.93R
PHILADELPHIA   CLOUDY    77  73  87 CALM      29.90R
PITTSBURGH     MOSUNNY   83  64  52 W10       29.91S
ROANOKE        MOSUNNY   86  69  56 W6        29.94R HX  90
RICHMOND       LGT RAIN  77  74  90 NE13      29.86R
RALEIGH        PTSUNNY   87  74  64 NW5       29.85R HX  95

$$

ANZ530>537-160000-
MARINE OBSERVATIONS

STATION/POSITION TIME  TEMP    WIND        PRES
                       AIR SEA DIR/SP/G
                 (UTC) (F)     (DEG/KT/KT) (MB)
THOMAS PT LIGHT  2200   76 79   30/  9/ 10   N/A
BALT KEY BRIDGE  2230   77      50/  5/  5 1011.8S
COVE POINT       2230   79      90/  2/  3 1012.3R
LEWISETTA        2230   80 81   90/  8/ 10 1011.5R
SOLOMONS ISLAND  2230   79 81   90/  5/  6   N/A
PINEY POINT      2230          110/  7/  8   N/A

$$





USA.gov is the U.S. government's official web portal to all federal, state and local government web resources and services.